| time (UTC) | temp C | wind direction | speed KPH | gust KPH | rain 1hr cm | rain 24hr cm | rain mn cm | humidity % | barometer mb |
| 20260507004255 | 7 | 190 | 8.0 | 0.0 | 0.00 | 1.04 | 0.03 | 88 | 1010.8 |
| 20260507003254 | 7 | 193 | 8.0 | 0.0 | 0.00 | 1.04 | 0.00 | 88 | 1010.8 |
| 20260507002254 | 7 | 208 | 8.0 | 0.0 | 0.00 | 1.04 | 0.00 | 88 | 1010.8 |
| 20260507001254 | 7 | 198 | 6.4 | 0.0 | 0.00 | 1.04 | 0.00 | 88 | 1010.9 |
| 20260507000255 | 7 | 233 | 8.0 | 0.0 | 0.00 | 1.04 | 0.00 | 88 | 1010.9 |
| 20260506235254 | 7 | 203 | 12.9 | 0.0 | 0.00 | 1.04 | 0.00 | 88 | 1010.9 |
| 20260506234254 | 7 | 185 | 9.7 | 0.0 | 0.00 | 1.04 | 0.00 | 89 | 1010.9 |
| 20260506233254 | 7 | 155 | 6.4 | 0.0 | 0.00 | 1.04 | 0.00 | 90 | 1011.0 |
| 20260506232254 | 7 | 195 | 8.0 | 0.0 | 0.00 | 1.04 | 0.00 | 90 | 1010.8 |
| 20260506231254 | 7 | 195 | 0.0 | 0.0 | 0.00 | 1.04 | 0.00 | 90 | 1010.8 |
| 20260506230255 | 7 | 218 | 0.0 | 0.0 | 0.00 | 1.04 | 0.00 | 90 | 1010.8 |
| 20260506225255 | 7 | 208 | 3.2 | 0.0 | 0.00 | 1.04 | 0.00 | 90 | 1010.8 |
| 20260506224254 | 7 | 210 | 0.0 | 0.0 | 0.00 | 1.04 | 0.00 | 90 | 1010.7 |
| 20260506223254 | 7 | 203 | 0.0 | 0.0 | 0.00 | 1.04 | 0.00 | 89 | 1010.7 |
| 20260506222255 | 7 | 210 | 9.7 | 0.0 | 0.00 | 1.04 | 0.00 | 89 | 1010.9 |
| 20260506221255 | 7 | 180 | 6.4 | 0.0 | 0.00 | 1.04 | 0.00 | 89 | 1011.0 |
| 20260506220254 | 7 | 193 | 6.4 | 0.0 | 0.00 | 1.04 | 0.00 | 89 | 1011.1 |
| 20260506215255 | 7 | 198 | 8.0 | 0.0 | 0.00 | 0.56 | 1.04 | 89 | 1011.0 |
| 20260506214255 | 7 | 170 | 11.3 | 0.0 | 0.00 | 0.56 | 1.04 | 89 | 1010.9 |
| 20260506213254 | 7 | 200 | 8.0 | 0.0 | 0.00 | 0.56 | 1.04 | 89 | 1010.8 |
| 20260506212255 | 7 | 160 | 6.4 | 0.0 | 0.00 | 0.56 | 1.04 | 90 | 1010.8 |
| 20260506211254 | 7 | 225 | 8.0 | 0.0 | 0.00 | 0.56 | 1.04 | 90 | 1010.6 |
| 20260506210254 | 7 | 193 | 6.4 | 0.0 | 0.00 | 0.56 | 1.04 | 90 | 1010.6 |
| 20260506205255 | 7 | 258 | 6.4 | 0.0 | 0.00 | 0.56 | 1.04 | 90 | 1010.5 |
| 20260506204255 | 7 | 228 | 6.4 | 0.0 | 0.00 | 0.56 | 1.04 | 90 | 1010.5 |
| 20260506203254 | 7 | 215 | 3.2 | 0.0 | 0.00 | 0.56 | 1.04 | 89 | 1010.5 |
| 20260506202254 | 7 | 210 | 4.8 | 0.0 | 0.00 | 0.56 | 1.04 | 89 | 1010.5 |
| 20260506201254 | 7 | 178 | 8.0 | 0.0 | 0.00 | 0.56 | 0.99 | 89 | 1010.5 |
| 20260506200255 | 7 | 190 | 4.8 | 0.0 | 0.00 | 0.56 | 0.97 | 88 | 1010.4 |
| 20260506195254 | 7 | 205 | 9.7 | 0.0 | 0.00 | 0.56 | 0.94 | 88 | 1010.3 |
| 20260506194255 | 7 | 250 | 6.4 | 0.0 | 0.00 | 0.56 | 0.91 | 88 | 1010.2 |
| 20260506193256 | 7 | 208 | 9.7 | 0.0 | 0.00 | 0.56 | 0.89 | 88 | 1010.1 |
| 20260506192255 | 8 | 185 | 8.0 | 0.0 | 0.00 | 0.56 | 0.84 | 89 | 1010.1 |
| 20260506191254 | 8 | 223 | 6.4 | 0.0 | 0.00 | 0.56 | 0.81 | 89 | 1009.9 |
| 20260506190255 | 8 | 203 | 8.0 | 0.0 | 0.00 | 0.56 | 0.71 | 90 | 1009.8 |
| 20260506185255 | 8 | 215 | 6.4 | 0.0 | 0.00 | 0.56 | 0.71 | 90 | 1009.7 |
| 20260506184255 | 8 | 193 | 6.4 | 0.0 | 0.00 | 0.56 | 0.71 | 90 | 1009.6 |
| 20260506183254 | 8 | 183 | 6.4 | 0.0 | 0.00 | 0.56 | 0.69 | 89 | 1009.5 |
| 20260506182254 | 8 | 180 | 6.4 | 0.0 | 0.00 | 0.56 | 0.66 | 89 | 1009.4 |
| 20260506181254 | 8 | 213 | 8.0 | 0.0 | 0.00 | 0.56 | 0.66 | 88 | 1009.3 |
| 20260506180254 | 8 | 225 | 8.0 | 0.0 | 0.00 | 0.56 | 0.61 | 88 | 1009.2 |
| 20260506174916 | 8 | 225 | 11.3 | 0.0 | 0.00 | 0.56 | 0.58 | 88 | 1009.0 |
| 20260506173916 | 8 | 215 | 9.7 | 0.0 | 0.00 | 0.56 | 0.56 | 87 | 1008.8 |
| 20260506172916 | 8 | 205 | 11.3 | 0.0 | 0.00 | 0.56 | 0.56 | 87 | 1008.6 |
| 20260506171916 | 8 | 205 | 8.0 | 0.0 | 0.00 | 0.56 | 0.53 | 87 | 1008.5 |
| 20260506170916 | 8 | 220 | 9.7 | 0.0 | 0.00 | 0.56 | 0.53 | 86 | 1008.5 |
| 20260506165916 | 8 | 220 | 9.7 | 0.0 | 0.00 | 0.56 | 0.53 | 86 | 1008.5 |
| 20260506164916 | 9 | 215 | 11.3 | 0.0 | 0.00 | 0.56 | 0.51 | 86 | 1008.4 |
| 20260506163916 | 9 | 215 | 9.7 | 0.0 | 0.00 | 0.56 | 0.51 | 85 | 1008.4 |
| 20260506162916 | 9 | 210 | 9.7 | 0.0 | 0.00 | 0.56 | 0.48 | 85 | 1008.5 |
| 20260506160916 | 10 | 205 | 6.4 | 0.0 | 0.00 | 0.56 | 0.41 | 86 | 1008.6 |
| 20260506155916 | 10 | 158 | 3.2 | 0.0 | 0.00 | 0.56 | 0.38 | 86 | 1008.5 |
| 20260506154916 | 10 | 240 | 9.7 | 0.0 | 0.00 | 0.56 | 0.36 | 85 | 1008.4 |
| 20260506153916 | 10 | 215 | 9.7 | 0.0 | 0.00 | 0.56 | 0.36 | 85 | 1008.4 |
| 20260506152916 | 10 | 183 | 9.7 | 0.0 | 0.00 | 0.56 | 0.33 | 85 | 1008.3 |
| 20260506151916 | 10 | 125 | 6.4 | 0.0 | 0.00 | 0.56 | 0.33 | 85 | 1008.2 |
| 20260506150916 | 10 | 168 | 8.0 | 0.0 | 0.00 | 0.56 | 0.28 | 84 | 1008.2 |
| 20260506145916 | 10 | 185 | 9.7 | 0.0 | 0.00 | 0.56 | 0.28 | 84 | 1008.1 |
| 20260506144916 | 10 | 238 | 11.3 | 0.0 | 0.00 | 0.56 | 0.25 | 83 | 1008.0 |
| 20260506143916 | 10 | 185 | 11.3 | 0.0 | 0.00 | 0.56 | 0.25 | 82 | 1007.9 |
| 20260506142916 | 11 | 158 | 11.3 | 0.0 | 0.00 | 0.56 | 0.25 | 83 | 1007.8 |
| 20260506141916 | 11 | 223 | 9.7 | 0.0 | 0.00 | 0.56 | 0.23 | 84 | 1007.7 |
| 20260506140917 | 11 | 193 | 11.3 | 0.0 | 0.00 | 0.56 | 0.23 | 83 | 1007.6 |
| 20260506135917 | 11 | 173 | 6.4 | 0.0 | 0.00 | 0.56 | 0.23 | 84 | 1007.4 |
| 20260506134916 | 11 | 175 | 9.7 | 0.0 | 0.00 | 0.56 | 0.23 | 84 | 1007.3 |
| 20260506133917 | 11 | 233 | 6.4 | 0.0 | 0.00 | 0.56 | 0.20 | 84 | 1007.3 |
| 20260506132916 | 11 | 300 | 11.3 | 0.0 | 0.00 | 0.56 | 0.20 | 84 | 1007.2 |
| 20260506131916 | 11 | 220 | 6.4 | 0.0 | 0.00 | 0.56 | 0.20 | 85 | 1007.2 |
| 20260506130916 | 11 | 328 | 9.7 | 0.0 | 0.00 | 0.56 | 0.18 | 85 | 1007.2 |
| 20260506125917 | 11 | 280 | 6.4 | 0.0 | 0.00 | 0.56 | 0.15 | 85 | 1007.2 |
| 20260506124916 | 11 | 315 | 8.0 | 0.0 | 0.00 | 0.56 | 0.13 | 83 | 1007.2 |
| 20260506123916 | 11 | 180 | 8.0 | 0.0 | 0.00 | 0.56 | 0.10 | 83 | 1007.1 |
| 20260506122916 | 11 | 190 | 6.4 | 0.0 | 0.00 | 0.56 | 0.10 | 82 | 1007.0 |
| 20260506121916 | 12 | 238 | 11.3 | 0.0 | 0.00 | 0.56 | 0.03 | 80 | 1006.9 |
| 20260506120916 | 12 | 265 | 9.7 | 0.0 | 0.00 | 0.56 | 0.03 | 78 | 1006.9 |
| 20260506115916 | 12 | 8 | 14.5 | 0.0 | 0.00 | 0.56 | 0.03 | 76 | 1006.9 |
| 20260506114916 | 13 | 295 | 11.3 | 0.0 | 0.00 | 0.56 | 0.03 | 71 | 1006.8 |
| 20260506113916 | 14 | 185 | 16.1 | 0.0 | 0.00 | 0.56 | 0.03 | 67 | 1006.6 |
| 20260506112917 | 15 | 200 | 11.3 | 0.0 | 0.00 | 0.56 | 0.03 | 67 | 1006.5 |
| 20260506111916 | 15 | 185 | 9.7 | 0.0 | 0.00 | 0.56 | 0.03 | 67 | 1006.4 |
| 20260506110916 | 15 | 160 | 9.7 | 0.0 | 0.00 | 0.56 | 0.03 | 66 | 1006.4 |
| 20260506105916 | 15 | 150 | 11.3 | 0.0 | 0.00 | 0.56 | 0.03 | 68 | 1006.4 |
| 20260506104916 | 15 | 175 | 9.7 | 0.0 | 0.00 | 0.56 | 0.03 | 69 | 1006.5 |
| 20260506103916 | 15 | 175 | 11.3 | 0.0 | 0.00 | 0.56 | 0.03 | 70 | 1006.6 |
| 20260506061916 | 8 | 158 | 6.4 | 0.0 | 0.00 | 0.56 | 0.03 | 93 | 1007.0 |
| 20260506060917 | 7 | 160 | 0.0 | 0.0 | 0.00 | 0.56 | 0.03 | 93 | 1007.0 |
| 20260506050917 | 5 | 138 | 0.0 | 0.0 | 0.00 | 0.56 | 0.03 | 93 | 1007.3 |
| 20260506044916 | 5 | 120 | 0.0 | 0.0 | 0.00 | 0.56 | 0.03 | 93 | 1007.4 |
| 20260506043916 | 5 | 98 | 0.0 | 0.0 | 0.00 | 0.56 | 0.03 | 93 | 1007.4 |
| 20260506042916 | 5 | 358 | 0.0 | 0.0 | 0.00 | 0.56 | 0.03 | 93 | 1007.4 |
| 20260506041916 | 5 | 0 | 0.0 | 0.0 | 0.00 | 0.56 | 0.03 | 93 | 1007.6 |
| 20260506040916 | 5 | 355 | 0.0 | 0.0 | 0.00 | 0.56 | 0.03 | 93 | 1007.6 |
| 20260506035917 | 5 | 25 | 0.0 | 0.0 | 0.00 | 0.56 | 0.03 | 93 | 1007.6 |
| 20260506034916 | 6 | 25 | 4.8 | 0.0 | 0.00 | 0.56 | 0.03 | 93 | 1007.4 |
| 20260506033916 | 6 | 308 | 6.4 | 0.0 | 0.00 | 0.56 | 0.03 | 93 | 1007.4 |
| 20260506032917 | 6 | 345 | 6.4 | 0.0 | 0.00 | 0.56 | 0.03 | 93 | 1007.5 |
| 20260506031916 | 6 | 240 | 8.0 | 0.0 | 0.00 | 0.56 | 0.03 | 93 | 1007.6 |
| 20260506030917 | 6 | 233 | 6.4 | 0.0 | 0.00 | 0.56 | 0.03 | 93 | 1007.8 |
| 20260506025916 | 6 | 138 | 4.8 | 0.0 | 0.00 | 0.56 | 0.03 | 93 | 1007.8 |
| 20260506024916 | 6 | 340 | 6.4 | 0.0 | 0.00 | 0.56 | 0.03 | 93 | 1008.1 |
| 20260506023916 | 6 | 355 | 0.0 | 0.0 | 0.00 | 0.56 | 0.03 | 93 | 1008.2 |
| 20260506022917 | 6 | 350 | 0.0 | 0.0 | 0.00 | 0.56 | 0.03 | 93 | 1008.3 |
| 20260506021916 | 6 | 233 | 8.0 | 0.0 | 0.00 | 0.56 | 0.03 | 93 | 1008.2 |
| 20260506020916 | 6 | 260 | 4.8 | 0.0 | 0.00 | 0.56 | 0.03 | 93 | 1008.3 |
| 20260506015916 | 6 | 318 | 3.2 | 0.0 | 0.00 | 0.56 | 0.03 | 93 | 1008.3 |
| 20260506014917 | 6 | 318 | 8.0 | 0.0 | 0.00 | 0.56 | 0.03 | 93 | 1008.5 |
| 20260506013917 | 6 | 220 | 4.8 | 0.0 | 0.00 | 0.56 | 0.03 | 93 | 1008.5 |
| 20260506012916 | 7 | 270 | 4.8 | 0.0 | 0.00 | 0.56 | 0.03 | 93 | 1008.7 |
| 20260506011916 | 7 | 320 | 6.4 | 0.0 | 0.00 | 0.56 | 0.03 | 93 | 1008.8 |
| 20260506010916 | 6 | 323 | 6.4 | 0.0 | 0.00 | 0.56 | 0.03 | 93 | 1008.9 |
| 20260506005916 | 6 | 263 | 4.8 | 0.0 | 0.00 | 0.56 | 0.03 | 93 | 1008.8 |
| 20260506004917 | 6 | 355 | 4.8 | 0.0 | 0.00 | 0.56 | 0.03 | 93 | 1008.6 |